Погода в Кишиневе

Погода в Кишиневе : погода сейчас, прогноз погоды и архив. Всё, что Вы хотите узнать о погоде в Кишиневе!

Хотите узнать прогноз погоды в Кишинёве? Тогда Вам сюда: Погода в Кишинёве

Поиск расширенной информации на нашем сайте:

Другие новости

Новости СМИ2

Главная страница сайта

Новости сайта

03.07.2017

Напоминаем, что на нашем специализированном сайте Метеоцентр.Азия вы можете получить высокодетализированные автоматические прогнозы погоды по пунктам России, СНГ и мира в авиационном формате (включающие направление и скорость ветра, видимость, явления погоды, количество и форму облачности, нижнюю и верхнюю границу облачности).


Погода в Кишиневе - сегодня

Время (UTC), дата Ветер
(°,м/с) 
Видим.   Явления Облачность Т
(°С)
Тd
(°С)
f(%) Тe
(°С)
Pmin
(гПа)
dP
(гПа)
Po
(мм)
O2
(г/м3)
Тmin Tmax R s Состояние
почвы
09 20.02.18 110 (В) 10 км    8/1 600 м средняя, верхняя 
[Cu hum|Ac trans|Ci fib]
-2.2 -6.6 72 -5  1026.5  0.1  754  307           
12 20.02.18 110 (В) 20000 м    10/3 600 м верхняя 
[Cu hum|Ci fib]
+1.2 -6.4 57 1024.6  -1.6  752  303           
15 20.02.18 120 (ЮВ) 20000 м    9/3 600 м средняя, верхняя 
[Cu hum|Ac trans|Ci fib]
+0.9 -6.2 59 -1  1023.8  -0.8  752  303           
18 20.02.18 040 (СВ) 2000 м  дымка{ливн. осадки}  10/10 600 м кучево-дожд. 
[Cb calv]
+0.3 -0.1 97 1024.9  2.3  753  303    +0.3     
21 20.02.18 100 (В) 10 км    3/0 верхняя 
[Ci fib]
-2.1 -6.3 73 -3  1023.7  -0.5  752  306           
00 21.02.18 080 (В) 10 км    ясно 
-3 -5.8 81 -5  1023.7  -0.1  752  307           
03 21.02.18 100 (В) 10 км    ясно 
-3.8 -6.3 83 -5  1023.7  -0.1  751  308  -3.9         
06 21.02.18 090 (В) 20000 м    8/5 400 м средняя, верхняя 
[Ac trans|Ci fib]
-3.7 -6.6 80 -6  1023.8  0.2  752  308  -4.1      мокрый или
старый снег
50-90% 
09 21.02.18 110 (В) 20000 м    10/3 600 м средняя, верхняя 
[Cu med, cong|As trans|Ci fib]
-1.7 -5 78 -4  1023.6  -0.1  752  305           
12 21.02.18 120 (ЮВ) 20000 м    10/10 600 м 
[Sc]
+0.3 -6.6 60 -1  1022.3  -1.1  751  303           
15 21.02.18 110 (В) 20000 м    10/3 600 м средняя 
[Sc|Ac trans]
+0.2 -5.8 64 -1  1021.2  -1.1  750  303           
18 21.02.18 090 (В) 20000 м    10/6 300 м средняя 
[Sc|Ac trans]
-0.6 -5.2 71 -2  1021.5  0.2  750  303    +0.7       
21 21.02.18 110 (В) 20000 м    10/10 600 м 
[Sc]
-1.7 -5.5 75 -4  1021.6  0.1  750  305           
00 22.02.18 080 (В) 20000 м    10/10 600 м 
[Sc]
-2.2 -5.5 78 -4  1021.8  0.1  750  305           
03 22.02.18 070 (В) 20000 м    10/10 600 м 
[Sc]
-2.5 -5.5 80 -4  1021.6  -0.2  750  306           
06 22.02.18 070 (В) 10 км    10/10 330 м 
[Sc]
-2.5 -5.3 81 -4  1022.3  0.7  751  306  -2.6      мокрый или
старый снег
50-90% 
09 22.02.18 090 (В) 10 км    10/10 600 м 
[Sc]
-1.7 -5.2 77 -3  1022.6  0.3  751  305           
12 22.02.18 080 (В) 20000 м    10/10 600 м 
[Sc]
-1.1 -5.3 73 -3  1022.4  -0.1  751  304           
15 22.02.18 060 (СВ) 20000 м    10/10 600 м 
[Sc]
-1.1 -4.8 76 -2  1022  -0.4  750  304           
18 22.02.18 070 (В) 10 км    10/10 420 м 
[Sc]
-1.3 -4.8 77 -2  1022.4  0.4  751  304    -0.8       
21 22.02.18 070 (В) 10 км    10/10 600 м 
[Sc]
-1.7 -4.4 82 -3  1022.6  0.1  751  305           
00 23.02.18 030 (СВ) 10 км    10/10 600 м 
[Sc]
-2.2 -5.2 80 -2  1022.6  751  306           
06 23.02.18 020 (С) 10 км  {снег}  8/3 600 м средняя, верхняя 
[Sc|Ac trans|Ci fib]
-2.9 -5.5 82 -2  1022  0.4  750  306  -2.9    0.0     
09 23.02.18 070 (В) 20000 м    10/8 600 м средняя 
[Cu med, cong|Ac trans]
-0.6 -5.6 69 -1  1022.5  0.6  751  304           
12 23.02.18 050 (СВ) 20000 м    10/10 600 м 
[Cu med, cong]
-0.4 -5.8 67 1021.4  -1  750  303           
Время (UTC), дата Ветер
(°,м/с) 
Видим.   Явления Облачность Т
(°С)
Тd
(°С)
f(%) Тe
(°С)
Pmin
(гПа)
dP
(гПа)
Po
(мм)
O2
(г/м3)
Тmin Tmax R s Состояние
почвы

Для получения пояснительной информации подведите курсор к названию столбца.

ПОГОДА в Кишиневе - архив

Всё, что Вы хотите узнать о погоде в Кишиневе - удобно и подробно!

Выберите нужную дату (начиная с 1 января 2015* года) и нажмите кнопку "Найти".
Будут отображены архивные сводки погоды по пункту Кишинев, начиная с указанной даты.


Отображать данные в формате CSV (для использования в таблицах Excel)


Внимание! Наш архив погоды предназначен исключительно для личного некоммерческого использования в познавательных целях. Если Вам необходимы официальные справки о состоянии погоды (для производственных, юридических, коммерческих и т.п. целей), обращайтесь в органы Росгидромета.

*Примечание: данная дата относится к архиву по метеостанциям СССР (Россия, СНГ, Балтия).
Архив по метеостанциям Зарубежной Европы и Азии (кроме Китая) хранится 10 дней, по другим регионам земного шара (Китай, Африка, Америка, Австралия, Океания) - 1 день.

Кишинев - район местоположения метеостанции


Название, широта, долгота, высота метеостанции:
Кишинев 47°ш. 29°д. 173 м над ур. моря [Молдавия]

Дополнительная информация

В oтличие oт бoльшинства пoгoдных сайтoв мы публикуем пoдрoбную метеoинфoрмацию в детальнoм прoфессиoнальнoм фoрмате.

Характеристики температуры и влажнoсти вoздуха измеряются на высoте 2 м в тени вдали oт зданий и деревьев.
Скoрoсть ветра измеряется на высoте 10 м (на урoвне рoста челoвека скoрoсть ветра ниже в 1.5-2 раза). Если метеoстанция нахoдится в гoрoде или в лесу, тo скoрoсть ветра занижена на 2-4 м/с пo сравнению с oткрытым местoм. Скoрoсть ветра над акватoриями крупных рек и oзёр, а также на вершинах хoлмoв на 2-5 м/с выше, чем в oбычных услoвиях.
Атмoсфернoе давление в разных тoчках местнoсти мoжет значительнo oтличаться oт давления на метеoстанции, в зависимoсти oт услoвий рельефа (при пoдъёме на 10 м давление пoнижается примернo на 1 мм рт.ст.).